Tracking 19572 objects as of 23-Feb-2019
HD Live streaming from Space Station
objects crossing your sky now

METEOR 2-17 DEB

Track METEOR 2-17 DEB now!
10-day predictions


NORAD ID: 38283
Int'l Code: 1988-005AL
Perigee: 912.0 km
Apogee: 939.8 km
Inclination: 82.6 °
Period: 103.4 minutes
Semi major axis: 7296 km
RCS: 0.005 m2 (small)
Launch date: January 30, 1988
Source: Commonwealth of Independent States (former USSR) (CIS)
Launch site: PLESETSK MISSILE AND SPACE COMPLEX (PKMTR)

Note: This is SATELLITE DEBRIS
aabbcc
Your satellite tracking list
Your tracking list is empty




NASA's NSSDC Master Catalog

Two Line Element Set (TLE):
1 38283U 88005AL  19045.37099128  .00001112  00000-0  84625-3 0  9996
2 38283  82.5573 279.6534 0019041 343.2789  16.7746 13.92827418568053
Source of the keplerian elements: AFSPC